Regional Weather Roundup
Issued by NWS

Home | Current Version | Previous Version | Graphics & Text | Print | Product List | Glossary Off
Versions: 1 2 3 4 5 6 7 8 9 10 11 12 13 14 15 16 17 18 19 20 21 22 23 24 25 26 27 28 29 30 31 32 33 34 35 36 37 38 39 40 41 42 43 44 45 46 47 48 49 50

265
ASUS43 KMPX 211801
RWRMN
WEATHER ROUNDUP FOR MINNESOTA
NATIONAL WEATHER SERVICE TWIN CITIES/CHANHASSEN MN
100 PM CDT SAT OCT 21 2017


NOTE: "FAIR" INDICATES FEW OR NO CLOUDS BELOW 12,000 FEET WITH NO
SIGNIFICANT WEATHER AND/OR OBSTRUCTIONS TO VISIBILITY. N/A MEANS
CURRENT SKY AND/OR WEATHER CONDITIONS ARE NOT AVAILABLE.

MNZ060>063-068>070-211900-
   Twin Cities Metro

CITY           SKY/WX    TMP DP  RH WIND       PRES   REMARKS
TWIN CITIES    CLOUDY    65  62  90 S16G25    29.67F
6HR MIN TEMP:  60; 6HR MAX TEMP:  65; 6HR PCP:  0.42;

ST PAUL        CLOUDY    64  61  90 S18G30    29.68F
CRYSTAL        CLOUDY    64  58  80 S15G23    29.64F
BLAINE         CLOUDY    64  63  94 S18       29.66F
LAKEVILLE      CLOUDY    63  63 100 S15G25    29.68F
EDEN PRAIRIE   CLOUDY    66  61  84 S17G36    29.64F
6HR MIN TEMP:  59; 6HR MAX TEMP:  66; 6HR PCP:  0.36;

SOUTH ST PAUL  CLOUDY    63  63 100 S15G21    29.68F
LAKE ELMO      CLOUDY    63  59  88 SE18G26   29.70S
$$
MNZ001>005-007-008-013>017-022>024-027-028-211900-
   Northwest Minnesota

CITY           SKY/WX    TMP DP  RH WIND       PRES   REMARKS
BEMIDJI        CLOUDY    63  56  80 S14       29.52F
HALLOCK        SUNNY     63  39  42 SW18G24   29.43R
ROSEAU         CLOUDY    66  59  77 S17G25    29.44R
WARROAD        CLOUDY    66  61  82 S13       29.45S
CROOKSTON      CLOUDY    61  41  48 W12       29.49R
FOSSTON        CLOUDY    63  54  72 W14G23    29.50S
DETROIT LAKES  CLOUDY    63  59  88 S9        29.51S
MOORHEAD       PTSUNNY   61  41  48 W10       29.51S
PARK RAPIDS    CLOUDY    63  58  83 S14       29.53S
MAHNOMEN       CLOUDY    58  49  74 W9        29.49S
$$
MNZ006-009>011-018-025>026-211900-
   North Central Minnesota

CITY           SKY/WX    TMP DP  RH WIND       PRES   REMARKS
BAUDETTE       CLOUDY    66  57  72 S21G30    29.48S
FLAG ISLAND    CLOUDY    55  52  88 SE15      29.43F
INTL FALLS     CLOUDY    64  54  69 S12G21    29.54S
6HR MIN TEMP:  61; 6HR MAX TEMP:  66;

WASKISH        CLOUDY    64  57  77 S10G17    29.51F
BIG FORK       CLOUDY    61  55  82 S14G22    29.57F
LONGVILLE      CLOUDY    61  57  88 S16G29    29.57S
GRAND RAPIDS   CLOUDY    59  57  93 S13       29.61F
CRANE LAKE     CLOUDY    63  55  77 S8G18     29.60F
ORR            CLOUDY    61  54  77 S14G23    29.57F
COOK           CLOUDY    61  55  82 S14G21    29.61F
WALKER         CLOUDY    60  57  89 S12G25    29.54S
$$
MNZ012-019>021-037-211900-
   Northeast Minnesota

CITY           SKY/WX    TMP DP  RH WIND       PRES   REMARKS
DULUTH         LGT RAIN  57  57 100 S16G25    29.66F FOG
6HR MIN TEMP:  56; 6HR MAX TEMP:  61; 6HR PCP:  0.16;

ELY            CLOUDY    61  54  77 S13G21    29.65S
HIBBING        CLOUDY    58  56  93 S10       29.62F
EVELETH        LGT RAIN  58  58 100 S8        29.65F
DULUTH HARBOR  HVY RAIN  59  57  94 S12       29.67F
TWO HARBORS    DRIZZLE   61  55  82 S7        29.67F
SILVER BAY     CLOUDY    59  57  94 SW7       29.68S
GRAND MARAIS     N/A     57  51  80 CALM      29.72F
G MARAIS ARPRT PTSUNNY   57  48  72 S12G21    29.73F
$$
MNZ029>031-032-039>041-046>048-054>057-064-211900-
   West Central Minnesota

CITY           SKY/WX    TMP DP  RH WIND       PRES   REMARKS
FERGUS FALLS   CLOUDY    59  46  63 NW14      29.52R
WHEATON        RAIN      57  45  62 W10G16    29.56R
MORRIS         CLOUDY    70  63  78 S12       29.50S
ALEXANDRIA     CLOUDY    65  60  84 S14       29.55S
ELBOW LAKE     CLOUDY    64  60  87 S10       29.51F
WADENA         CLOUDY    63  57  82 S14G20    29.53F
GLENWOOD       SUNNY     66  61  82 S14G22    29.55S
APPLETON       CLOUDY    73  61  64 S17       29.50S
BENSON         CLOUDY    72  61  68 SW15      29.53S
ORTONVILLE     CLOUDY    57  46  67 NW16G22   29.54R
MADISON        CLOUDY    70  55  60 W20       29.52R
WILLMAR        PTSUNNY   70  63  78 S10G20    29.57S
$$
MNZ033>034-036-042>043-049>051-058-059-211900-
   Central Minnesota

CITY           SKY/WX    TMP DP  RH WIND       PRES   REMARKS
ST CLOUD       CLOUDY    62  61  96 S15G25    29.61S
6HR MIN TEMP:  59; 6HR MAX TEMP:  63; 6HR PCP:  0.16;

SAUK CENTRE    CLOUDY    64  60  86 SE18G24   29.56F
PAYNESVILLE    CLOUDY    65  61  86 S14G24    29.59S
AITKIN         CLOUDY    57  55  94 S12G22    29.60S
PINE RIVER     CLOUDY    57  55  94 S9G18     29.61F
BRAINERD       CLOUDY    60  58  92 S17G23    29.59F
STAPLES        CLOUDY    63  57  82 S14G20    29.55F
LONG PRAIRIE   CLOUDY    61  59  94 E13G20    29.57S
LITTLE FALLS   CLOUDY    61  55  82 SE9       29.59F
LITCHFIELD     CLOUDY    66  63  88 S7        29.60F
BUFFALO        CLOUDY    63  59  86 S10G17    29.64F
MAPLE LAKE     CLOUDY    64  62  93 S8G21     29.63F
HUTCHINSON     CLOUDY    66  62  87 S16G22    29.62S
$$
MNZ037-044-045-052-053-211900-
   East Central Minnesota

CITY           SKY/WX    TMP DP  RH WIND       PRES   REMARKS
PRINCETON      CLOUDY    63  61  94 SE15G22   29.64S
MORA           CLOUDY    59  57  94 S12G18    29.67S
CAMBRIDGE      CLOUDY    64  63  94 S14       29.66S
RUSH CITY      CLOUDY    61  58  91 S16G23    29.67S
MOOSE LAKE     CLOUDY    59  55  88 S9        29.64F FOG
HINCKLEY       CLOUDY    61  59  94 S14G21    29.66F
CLOQUET        LGT RAIN  59  55  88 SE10G16   29.66F
MCGREGOR       CLOUDY    59  57  94 S14G23    29.63S
$$
MNZ071>073-080-081-089-090-097-098-211900-
   Southwest Minnesota

CITY           SKY/WX    TMP DP  RH WIND       PRES   REMARKS
MONTEVIDEO     PTSUNNY   73  63  68 SW16G26   29.52S
GRANITE FALLS  PTSUNNY   75  64  68 S21G28    29.55S
CANBY          CLOUDY    66  55  69 NW15G21   29.55R
MARSHALL       CLOUDY    72  62  71 SW24G33   29.54S
REDWOOD FALLS  CLOUDY    71  61  70 S23G32    29.57S
OLIVIA         CLOUDY    70  63  78 S14       29.57S
PIPESTONE      LGT RAIN  61  54  77 NW13G28   29.58R
WORTHINGTON    CLOUDY    69  62  78 S17G25    29.61S
JACKSON        CLOUDY    64  61  88 S16       29.65S
TRACY          PTSUNNY   71  64  76 S22G30    29.57S
SLAYTON        CLOUDY    71  62  73 S18G29    29.59S
$$
MNZ065>067-074>077-082>085-091>093-211900-
   South Central Minnesota

CITY           SKY/WX    TMP DP  RH WIND       PRES   REMARKS
MANKATO        CLOUDY    65  61  87 S18G25    29.66
NEW ULM        CLOUDY    66  61  82 S26G35    29.61F
ST JAMES       CLOUDY    64  61  88 S20G28    29.66R
FAIRMONT       CLOUDY    65  61  87 S22G30    29.67R
GLENCOE        CLOUDY    66  66 100 S14G21    29.63S
FARIBAULT      CLOUDY    64  61  88 S16G28    29.70F
OWATONNA       PTSUNNY   64  61  88 S23G33    29.71F
WASECA         CLOUDY    63  59  88 S17G35    29.72S
$$
MNZ078>079-086>088-094>096-211900-
   Southeast Minnesota

CITY           SKY/WX    TMP DP  RH WIND       PRES   REMARKS
ROCHESTER      CLOUDY    64  59  83 S21G30    29.78S
6HR MIN TEMP:  57; 6HR MAX TEMP:  64; 6HR PCP:  0.08;

RED WING       CLOUDY    68  57  68 S12G22    29.72S
STANTON        CLOUDY    66  60  80 S17G26    29.69F
DODGE CENTER   CLOUDY    63  57  82 S26G33    29.74F
WINONA         CLOUDY    70  57  64 S9        29.80F
AUSTIN         CLOUDY    63  57  82 S13G21    29.76F
PRESTON        CLOUDY    63  56  80 S16G22    29.82S
$$
ABBREVIATIONS USED IN REMARKS
   TC - TEMPERATURES IN CELSIUS
  WCI - WIND CHILL INDEX
   HX - HEAT INDEX
  VSB - VISIBILITY
$$




USA.gov is the U.S. government's official web portal to all federal, state and local government web resources and services.